Date String (YYYY-MM-DD hh:mm:ss) UTC,Instrument flags,Ambient pressure (hPa),Sample flow (lpm),Bypass flow (lpm),Sample temperature (°C),Ambient temperature (°C),ASC tube jacket temperature (°C),LED temperature (°C),Box temperature (°C),Sample RH (%),Span deviation,Mass concentration (μg/m³),Mass concentration (μg/m³),Mass concentration (μg/m³)
DateTimeUTC,F1_M11,P_M11,Q1_M11,Q2_M11,T1_M11,T2_M11,T3_M11,T4_M11,T5_M11,U1_M11,ZSPAN_M11,X0_M11,X2_M11,X1_M11
2023-04-14 15:00:00,,0821.8,5.00,0.00,23.7,21.8,00.0,32.2,25.2,21.4,0000.0,0010.23,0005.97,0005.12
2023-04-14 15:01:00,,0821.8,5.00,0.00,23.7,21.8,00.0,32.2,25.2,21.5,0000.0,0010.33,0005.97,0005.11
2023-04-14 15:02:00,,0821.8,5.00,0.00,23.7,21.8,00.0,32.2,25.2,21.5,0000.0,0010.90,0005.98,0005.10
2023-04-14 15:03:00,,0821.8,5.00,0.00,23.7,21.8,00.0,32.1,25.2,21.4,0000.0,0010.95,0005.96,0005.10
2023-04-14 15:04:00,,0821.8,5.00,0.00,23.7,21.8,00.0,32.1,25.2,21.4,0000.0,0010.92,0005.94,0005.09
2023-04-14 15:05:00,,0821.8,5.00,0.00,23.7,21.8,00.0,32.1,25.2,21.3,0000.0,0010.76,0005.90,0005.07
2023-04-14 15:06:00,,0821.9,5.00,0.00,23.7,21.8,00.0,32.1,25.2,21.3,0000.0,0011.10,0005.87,0005.04
2023-04-14 15:07:00,,0821.9,5.00,0.00,23.7,21.7,00.0,32.1,25.2,21.3,0000.0,0010.84,0005.83,0005.01
2023-04-14 15:08:00,,0822.0,4.99,0.00,23.7,21.7,00.0,32.1,25.2,21.1,0000.0,0010.54,0005.75,0004.95
2023-04-14 15:09:00,,0822.0,5.00,0.00,23.7,21.7,00.0,32.1,25.2,21.0,0000.0,0010.31,0005.64,0004.88
2023-04-14 15:10:00,,0821.9,5.00,0.00,23.7,21.7,00.0,32.1,25.1,20.7,0000.0,0010.17,0005.51,0004.79
2023-04-14 15:11:00,,0822.0,5.00,0.00,23.6,21.7,00.0,32.1,25.1,20.6,0000.0,0010.16,0005.42,0004.68
2023-04-14 15:12:00,,0822.0,5.00,0.00,23.6,21.6,00.0,32.1,25.1,20.5,0000.0,0009.78,0005.27,0004.58
2023-04-14 15:13:00,,0821.9,5.00,0.00,23.6,21.6,00.0,32.1,25.1,20.5,0000.0,0008.93,0005.11,0004.47
2023-04-14 15:14:00,,0822.0,5.00,0.00,23.6,21.5,00.0,32.0,25.0,20.5,0000.0,0008.59,0004.95,0004.36
2023-04-14 15:15:00,,0822.0,5.01,0.00,23.6,21.5,00.0,32.0,25.0,20.4,0000.0,0008.40,0004.81,0004.25
2023-04-14 15:16:00,,0822.0,5.00,0.00,23.6,21.6,00.0,32.0,25.0,20.4,0000.0,0008.30,0004.69,0004.15
2023-04-14 15:17:00,,0822.0,5.00,0.00,23.6,21.6,00.0,32.0,25.0,20.3,0000.0,0007.96,0004.59,0004.05
2023-04-14 15:18:00,,0822.0,5.00,0.00,23.6,21.6,00.0,32.0,25.0,20.2,0000.0,0007.51,0004.47,0003.95
2023-04-14 15:19:00,,0822.0,5.00,0.00,23.5,21.6,00.0,32.0,25.0,20.2,0000.0,0007.45,0004.38,0003.88
2023-04-14 15:20:00,,0822.0,5.00,0.00,23.5,21.6,00.0,32.0,25.0,20.2,0000.0,0007.49,0004.35,0003.83
2023-04-14 15:21:00,,0822.0,5.00,0.00,23.5,21.6,00.0,32.0,25.1,20.2,0000.0,0007.50,0004.32,0003.80
2023-04-14 15:22:00,,0822.0,5.01,0.00,23.5,21.6,00.0,32.0,25.0,20.2,0000.0,0007.43,0004.30,0003.78
2023-04-14 15:23:00,,0822.1,5.00,0.00,23.5,21.6,00.0,32.0,25.0,20.2,0000.0,0007.87,0004.29,0003.78
2023-04-14 15:24:00,,0822.1,5.00,0.00,23.5,21.6,00.0,32.0,25.0,20.3,0000.0,0007.84,0004.28,0003.78
2023-04-14 15:25:00,,0822.1,5.00,0.00,23.5,21.6,00.0,31.9,25.0,20.3,0000.0,0007.86,0004.27,0003.78
2023-04-14 15:26:00,,0822.1,5.00,0.00,23.5,21.6,00.0,31.9,25.0,20.3,0000.0,0007.99,0004.29,0003.78
2023-04-14 15:27:00,,0822.1,5.00,0.00,23.5,21.6,00.0,31.9,25.0,20.3,0000.0,0008.09,0004.32,0003.79
2023-04-14 15:28:00,,0822.2,5.00,0.00,23.5,21.6,00.0,31.9,25.0,20.3,0000.0,0008.02,0004.33,0003.81
2023-04-14 15:29:00,,0822.2,4.99,0.00,23.5,21.6,00.0,31.9,25.0,20.4,0000.0,0007.94,0004.32,0003.83
2023-04-14 15:30:00,,0822.2,5.00,0.00,23.5,21.5,00.0,31.9,25.0,20.4,0000.0,0008.33,0004.37,0003.85
2023-04-14 15:31:00,,0822.2,5.00,0.00,23.5,21.5,00.0,31.9,25.0,20.4,0000.0,0008.61,0004.37,0003.86
2023-04-14 15:32:00,,0822.2,5.00,0.00,23.5,21.4,00.0,31.9,24.9,20.4,0000.0,0008.57,0004.39,0003.88
2023-04-14 15:33:00,,0822.2,4.99,0.00,23.4,21.5,00.0,31.9,24.9,20.4,0000.0,0008.84,0004.41,0003.91
2023-04-14 15:34:00,,0822.2,5.00,0.00,23.4,21.5,00.0,31.9,24.9,20.4,0000.0,0008.82,0004.44,0003.92
2023-04-14 15:35:00,,0822.2,5.01,0.00,23.4,21.5,00.0,31.9,24.9,20.5,0000.0,0008.96,0004.50,0003.94
2023-04-14 15:36:00,,0822.2,5.01,0.00,23.4,21.5,00.0,31.8,24.9,20.5,0000.0,0009.04,0004.56,0003.97
2023-04-14 15:37:00,,0822.3,4.99,0.00,23.4,21.5,00.0,31.8,24.9,20.4,0000.0,0009.01,0004.59,0004.01
2023-04-14 15:38:00,,0822.2,4.99,0.00,23.4,21.5,00.0,31.8,24.9,20.4,0000.0,0008.88,0004.59,0004.02
2023-04-14 15:39:00,,0822.2,4.99,0.00,23.4,21.5,00.0,31.8,24.9,20.5,0000.0,0008.87,0004.59,0004.03
2023-04-14 15:40:00,,0822.3,5.00,0.00,23.4,21.5,00.0,31.8,24.9,20.4,0000.0,0009.38,0004.62,0004.04
2023-04-14 15:41:00,,0822.2,5.00,0.00,23.4,21.5,00.0,31.8,24.9,20.4,0000.0,0009.40,0004.61,0004.05
2023-04-14 15:42:00,,0822.2,5.00,0.00,23.4,21.5,00.0,31.8,24.9,20.4,0000.0,0008.85,0004.60,0004.06
2023-04-14 15:43:00,,0822.3,5.01,0.00,23.4,21.5,00.0,31.8,24.9,20.4,0000.0,0008.82,0004.59,0004.07
2023-04-14 15:44:00,,0822.3,5.01,0.00,23.4,21.5,00.0,31.8,24.9,20.4,0000.0,0008.63,0004.60,0004.09
2023-04-14 15:45:00,,0822.4,5.00,0.00,23.4,21.5,00.0,31.8,24.9,20.5,0000.0,0008.21,0004.59,0004.10
2023-04-14 15:46:00,,0822.4,5.00,0.00,23.4,21.4,00.0,31.8,24.9,20.5,0000.0,0008.01,0004.57,0004.12
2023-04-14 15:47:00,,0822.4,5.01,0.00,23.4,21.4,00.0,31.8,24.8,20.5,0000.0,0007.92,0004.55,0004.12
2023-04-14 15:48:00,,0822.4,4.99,0.00,23.3,21.4,00.0,31.8,24.9,20.6,0000.0,0007.76,0004.52,0004.12
2023-04-14 15:49:00,,0822.4,5.00,0.00,23.3,21.4,00.0,31.8,24.8,20.6,0000.0,0007.78,0004.52,0004.13
2023-04-14 15:50:00,,0822.4,5.00,0.00,23.3,21.4,00.0,31.7,24.8,20.6,0000.0,0007.71,0004.50,0004.13
2023-04-14 15:51:00,,0822.4,5.00,0.00,23.3,21.4,00.0,31.7,24.8,20.6,0000.0,0007.41,0004.50,0004.14
2023-04-14 15:52:00,,0822.4,5.01,0.00,23.3,21.4,00.0,31.7,24.8,20.6,0000.0,0006.71,0004.49,0004.15
2023-04-14 15:53:00,,0822.5,5.01,0.00,23.3,21.4,00.0,31.7,24.8,20.7,0000.0,0006.76,0004.49,0004.15
2023-04-14 15:54:00,,0822.4,5.00,0.00,23.3,21.5,00.0,31.7,24.8,20.6,0000.0,0006.81,0004.51,0004.14
2023-04-14 15:55:00,,0822.4,5.00,0.00,23.3,21.5,00.0,31.7,24.8,20.6,0000.0,0006.72,0004.49,0004.12
2023-04-14 15:56:00,,0822.5,4.99,0.00,23.3,21.5,00.0,31.7,24.8,20.7,0000.0,0006.65,0004.46,0004.10
2023-04-14 15:57:00,,0822.4,4.99,0.00,23.3,21.5,00.0,31.7,24.8,20.7,0000.0,0006.75,0004.46,0004.08
2023-04-14 15:58:00,,0822.4,5.01,0.00,23.3,21.5,00.0,31.7,24.8,20.7,0000.0,0006.74,0004.43,0004.06
2023-04-14 15:59:00,,0822.4,5.01,0.00,23.3,21.5,00.0,31.6,24.7,20.8,0000.0,,,
